Regional Weather Roundup
Issued by NWS Cleveland, OH

Home | Current Version | Previous Version | Graphics & Text | Print | Product List | Glossary On
Versions: 1 2 3 4 5 6 7 8 9 10 11 12 13 14 15 16 17 18 19 20 21 22 23 24 25 26 27 28 29 30 31 32 33 34 35 36 37 38 39 40 41 42 43 44 45 46 47 48 49 50
000
ASUS41 KCLE 252102
RWRCLE
OHIO REGIONAL WEATHER ROUNDUP
NATIONAL WEATHER SERVICE CLEVELAND, OH
400 PM EST SUN JAN 25 2015

NOTE: "FAIR" INDICATES FEW OR NO CLOUDS BELOW 12,000 FEET WITH NO
SIGNIFICANT WEATHER AND/OR OBSTRUCTIONS TO VISIBILITY.

OHZ001>008-015>018-024>027-034-035-043-044-252200-
   NORTHWEST OHIO

CITY           SKY/WX    TMP DP  RH WIND       PRES   REMARKS
DEFIANCE       LGT SNOW  23  19  85 NE15G25   29.83R VSB 1   WCI  10
FINDLAY        LGT SNOW  24  19  81 NE23G30   29.78R WCI   9
TOLEDO EXPRESS LGT SNOW  21  15  78 NE18G25   29.85R WCI   6
TOLEDO EXEC    LGT SNOW  22  14  71 NE17G25   29.87R WCI   8
LIMA           SNOW      26  22  84 NE16G26   29.74R VSB 1/2 WCI  14
$$

OHZ009>014-019>023-028>033-038-089-252200-
   NORTHEAST OHIO

CITY           SKY/WX    TMP DP  RH WIND       PRES   REMARKS
CLE-HOPKINS    LGT SNOW  22  17  81 NE16      29.86S WCI   8
CLE-LAKEFRONT  LGT SNOW  23  17  78 NE16G22   29.86R WCI  10
CUY CO. ARPT   CLOUDY    25  18  74 NE12      29.85R WCI  14
LORAIN-ELYRIA  LGT SNOW  21  17  84 NE16      29.84R FOG     WCI   7
ASHTABULA      CLOUDY    21  14  74 NE8       29.87R WCI  11
AKRON-CANTON   LGT SNOW  29  24  82 NE13      29.78S VSB 1   WCI  19
WOOSTER        LGT SNOW  29  25  85 NE12      29.78S FOG     WCI  19
MANSFIELD      LGT SNOW  25  22  88 NE13      29.75S FOG     WCI  14
YOUNGSTOWN     LGT SNOW  26  21  81 NE10      29.81R FOG     WCI  16
$$

OHZ042-051>053-060>062-070>072-077>081-252200-
  SOUTHWEST OHIO

CITY           SKY/WX    TMP DP  RH WIND       PRES   REMARKS
CINC-COVINGTON LGT RAIN  40  36  86 E8        29.64F FOG
CINC-LUNKEN    LGT RAIN  40  36  86 NE3       29.67F
HAMILTON       LGT RAIN  40  37  89 E3        29.67F FOG
DAYTON         LGT RAIN  36  34  92 E7        29.68S FOG
WRIGHT-PAT AFB LGT RAIN  38  36  95 E5        29.68F FOG
DAYTON GENERAL LGT RAIN  38  35  89 E7        29.66S
WILMINGTON     LGT RAIN  37  33  85 SE10      29.67F FOG
$$

OHZ036-037-039>041-045>050-054>059-063>069-073>076-082>088-252200-
  CENTRAL AND SOUTHEAST OHIO

CITY           SKY/WX    TMP DP  RH WIND       PRES   REMARKS
COLUMBUS       LGT RAIN  34  32  92 E7        29.73R VSB 1   WCI  28
OSU AIRPORT    LGT SNOW  34  32  92 E6        29.71S VSB 3/4 WCI  29
BOLTON FIELD   LGT RAIN  36  36 100 E6        29.72R VSB 1/2
RICKENBACK AFB NOT AVBL
NEWARK         LGT SNOW  35  33  92 E6        29.73R FOG
MARION         LGT SNOW  28  25  88 NE18      29.74S FOG     WCI  15
LANCASTER      MIX PCPN  37  35  92 E7        29.73R FOG
ZANESVILLE     LGT RAIN  34  32  92 E7        29.74S FOG     WCI  28
NEW PHILLY     CLOUDY    34  30  85 NE7       29.77S WCI  28
$$


USA.gov is the U.S. government's official web portal to all federal, state and local government web resources and services.